Rome Urbe Air Force Base, Italy

9:23 PM CEST on August 25, 2016 (GMT +0200)
Urbe

Weather History for LIRU - October, 2011

Change the Weather History Date:

Wednesday, October 12, 2011

  Actual Average Record
Temperature  
Mean Temperature 70 °F -  
Max Temperature 82 °F 69 °F 82 °F (2011)
Min Temperature 57 °F 48 °F 46 °F (2006)
Cooling Degree Days 4    
Growing Degree Days 20 (Base 50)    
Moisture  
Dew Point 58 °F    
Average Humidity 76    
Maximum Humidity 100    
Minimum Humidity 42    
Precipitation  
Precipitation 0.00 in 0.15 in - ()
Sea Level Pressure  
Sea Level Pressure 30.06 in    
Wind  
Wind Speed 3 mph ()    
Max Wind Speed 12 mph    
Max Gust Speed -    
Visibility 2.4 miles    
Events Fog    
Averages and records for this station are not official NWS values.
T = Trace of Precipitation, MM = Missing Value Source: Averaged Metar Reports

Daily Weather History Graph

Daily Weather History Graph

Search for Another Location

Airport or City:

Trip Planner

Search our weather history database for the weather conditions in past years. The results will help you decide how hot, cold, wet, or windy it might be!

Date:

Astronomy

Oct. 12, 2011 Rise Set
Actual Time 7:18 AM CEST 6:34 PM CEST
Civil Twilight 6:50 AM CEST 7:02 PM CEST
Nautical Twilight 6:18 AM CEST 7:34 PM CEST
Astronomical Twilight 5:45 AM CEST 8:06 PM CEST
Moon 6:25 PM CEST (10/12) 7:38 AM CEST (10/12)
Length of Visible Light 12h 11m
Length of Day
11h 15m
Full, 100% of the Moon is Illuminated
Oct 12
Full
Oct 20
Last Quarter
Oct 26
New
Nov 2
First Quarter
Nov 10
Full

Hourly Weather History & Observations

Time (CEST) Temp. Heat Index Dew Point Humidity Pressure Visibility Wind Dir Wind Speed Gust Speed Precip Events Conditions
7:24 AM 57.2 °F - 55.4 °F 94% 30.06 in 3.1 mi North 5.8 mph - N/A   Mostly Cloudy
7:50 AM 57.2 °F - 55.4 °F 94% 30.06 in 2.2 mi North 5.8 mph - N/A   Mostly Cloudy
8:00 AM 57.2 °F - 57.2 °F 100% 30.06 in 1.6 mi Variable 3.5 mph - N/A   Mostly Cloudy
8:15 AM 57.2 °F - 57.2 °F 100% 30.06 in 0.9 mi Variable 3.5 mph - N/A   Mostly Cloudy
8:33 AM 59.0 °F - 57.2 °F 94% 30.06 in - Variable 2.3 mph - N/A Fog Fog
8:50 AM 59.0 °F - 59.0 °F 100% 30.06 in - Variable 1.2 mph - N/A Fog Fog
9:50 AM 59.0 °F - 59.0 °F 100% 30.09 in 1.9 mi Variable 1.2 mph - N/A   Scattered Clouds
10:00 AM 60.8 °F - 59.0 °F 94% 30.09 in 3.7 mi Variable 3.5 mph - N/A   Partly Cloudy
10:50 AM 68.0 °F - 59.0 °F 73% 30.09 in - Variable 1.2 mph - N/A   Clear
11:50 AM 71.6 °F - 53.6 °F 53% 30.09 in - Variable 1.2 mph - N/A   Clear
12:50 PM 75.2 °F - 55.4 °F 50% 30.06 in - Variable 2.3 mph - N/A   Clear
1:50 PM 78.8 °F - 57.2 °F 47% 30.04 in - SSE 4.6 mph - N/A   Clear
2:50 PM 82.4 °F 82.0 °F 57.2 °F 42% 30.04 in - Variable 3.5 mph - N/A   Clear
3:50 PM 78.8 °F - 60.8 °F 54% 30.04 in - SW 11.5 mph - N/A   Clear
4:50 PM 78.8 °F - 60.8 °F 54% 30.04 in - SSW 6.9 mph - N/A   Clear
5:50 PM 75.2 °F - 59.0 °F 57% 30.01 in - WSW 4.6 mph - N/A   Clear
6:50 PM 71.6 °F - 59.0 °F 64% 30.04 in - SSW 4.6 mph - N/A   Clear
7:50 PM 68.0 °F - 60.8 °F 78% 30.04 in - Variable 2.3 mph - N/A   Clear
8:50 PM 66.2 °F - 60.8 °F 83% 30.04 in - Variable 2.3 mph - N/A   Clear
9:50 PM 60.8 °F - 59.0 °F 94% 30.04 in 3.7 mi Variable 1.2 mph - N/A   Unknown